User: anonymous   Login
Location: Kile Knob Observatory
(38.6083°N, 79.4792°W)
Time: 07:47:15
(UTC-04:00)
Language:

Tiangong 2 - Orbit

View from above orbital plane
View from above orbital plane
View from above satellite
View from above satellite

Ground track
Ground track

The orbit data is extracted from the following two-line orbital elements,

1 41765U 16057A   19168.23366898  .00002822  00000-0  36114-4 0  9995
2 41765  42.7840 326.5166 0008985 268.4304  80.2467 15.61742562157049
Epoch (UTC): 17 June 2019 05:36:29
Eccentricity: 0.0008985
inclination: 42.7840°
perigee height: 376 km
apogee height: 389 km
right ascension of ascending node: 326.5166°
argument of perigee: 268.4304°
revolutions per day: 15.61742562
mean anomaly at epoch: 80.2467°
orbit number at epoch: 15704

The dashed part of the orbit path shows where the satellite is in the earth's shadow,  

DLR